Location: Antioch Baptist Church
(32.6696°N, 85.7327°W)
Time: 11:54:43
(UTC+00:00)

Cosmos 1727 Rocket - Pass Details

Date: 14 July 2020
Orbit: 961 x 996 km, 82.9° (Epoch: 08 August)

Event Time Altitude Azimuth Distance (km) Brightness Sun altitude
Rises 04:54:42 0° 354° (N) 3,684 8.1 -34.2°
Reaches altitude 10° 04:57:12 10° 354° (N) 2,738 7.1 -34.3°
Enters shadow 05:02:05 57° 354° (N) 1,146 4.5 -34.6°
